Location: Hermaringen
(48.5952°N, 10.2585°E)
Time: 04:17:38
(UTC+00:00)

Transit 2A - Pass Details

Date: 24 February 2026
Orbit: 590 x 954 km, 66.7° (Epoch: 14 March)

Event Time Altitude Azimuth Distance (km) Brightness Sun altitude
Rises 18:16:16 0° 325° (NW) 3,588 10.0 -14.2°
Reaches altitude 10° 18:18:56 10° 329° (NNW) 2,608 9.2 -14.7°
Maximum altitude 18:24:57 61° 49° (NE) 974 6.3 -15.6°
Enters shadow 18:28:40 21° 124° (SE) 1,761 7.4 -16.3°
